W5CGC Weather Reports


time (UTC)temp
C
wind
direction
speed
KPH
gust
KPH
rain 1hr
cm
rain 24hr
cm
rain mn
cm
humidity
%
barometer
mb
20260903153041 28 0 0.0 8.0 0.00 0.00 0.00 59 1013.4
20260903151541 28 30 1.6 12.9 0.00 0.00 0.00 60 1013.4
20260903150106 27 0 0.0 6.4 0.00 0.00 0.00 61 1013.5
20260903144543 27 67 0.0 6.4 0.00 0.00 0.00 62 1013.6
20260903143040 26 197 0.0 14.5 0.00 0.00 0.00 62 1013.7
20260903141542 26 21 0.0 9.7 0.00 0.00 0.00 63 1013.7
20260903140043 26 0 0.0 6.4 0.00 0.00 0.00 64 1013.7
20260903134550 25 22 0.0 4.8 0.00 0.00 0.00 64 1013.5
20260903133042 25 0 0.0 0.0 0.00 0.00 0.00 65 1013.4
20260903131542 25 179 0.0 4.8 0.00 0.00 0.00 65 1013.4
20260903130041 24 0 0.0 0.0 0.00 0.00 0.00 66 1013.2
20260903124549 23 0 0.0 0.0 0.00 0.00 0.00 66 1013.3
20260903123042 23 0 0.0 0.0 0.00 0.00 0.00 67 1013.0
20260903121540 23 0 0.0 0.0 0.00 0.00 0.00 65 1012.8
20260903120049 23 0 0.0 0.0 0.00 0.00 0.00 65 1013.0
20260903114539 24 0 0.0 0.0 0.00 0.00 0.00 65 1012.9
20260903113047 23 0 0.0 0.0 0.00 0.00 0.00 65 1013.0
20260903111540 23 0 0.0 0.0 0.00 0.00 0.00 65 1012.8
20260903110043 23 0 0.0 0.0 0.00 0.00 0.00 65 1012.7
20260903104541 24 0 0.0 0.0 0.00 0.00 0.00 65 1012.5
20260903103042 24 0 0.0 0.0 0.00 0.00 0.00 65 1012.3
20260903101541 24 0 0.0 0.0 0.00 0.00 0.00 64 1012.5
20260903100047 25 0 0.0 0.0 0.00 0.00 0.00 64 1012.5
20260903094554 24 0 0.0 0.0 0.00 0.00 0.00 65 1012.5
20260903093040 24 0 0.0 0.0 0.00 0.00 0.00 65 1012.7
20260903091547 24 0 0.0 0.0 0.00 0.00 0.00 65 1012.6
20260903090040 24 0 0.0 0.0 0.00 0.00 0.00 64 1012.6
20260903084547 25 0 0.0 0.0 0.00 0.00 0.00 63 1012.5
20260903083043 25 0 0.0 0.0 0.00 0.00 0.00 62 1012.4
20260903081537 25 0 0.0 0.0 0.00 0.00 0.00 62 1012.5
20260903080048 25 0 0.0 0.0 0.00 0.00 0.00 62 1012.5
20260903074545 25 0 0.0 0.0 0.00 0.00 0.00 61 1012.6
20260903073041 25 0 0.0 0.0 0.00 0.00 0.00 60 1012.5
20260903071537 26 0 0.0 0.0 0.00 0.00 0.00 59 1012.5
20260903070042 26 0 0.0 0.0 0.00 0.00 0.00 58 1012.5
20260903064541 26 0 0.0 0.0 0.00 0.00 0.00 57 1012.7
20260903063043 27 0 0.0 0.0 0.00 0.00 0.00 56 1012.8
20260903061541 27 0 0.0 3.2 0.00 0.00 0.00 55 1013.1
20260903060043 27 0 0.0 8.0 0.00 0.00 0.00 54 1013.1
20260903054545 27 222 0.0 6.4 0.00 0.00 0.00 53 1013.2
20260903053057 27 215 0.0 3.2 0.00 0.00 0.00 52 1013.2
20260903051540 28 0 0.0 3.2 0.00 0.00 0.00 51 1013.2
20260903050050 28 0 0.0 6.4 0.00 0.00 0.00 50 1013.2
20260903044555 28 0 0.0 4.8 0.00 0.00 0.00 49 1012.9
20260903043039 28 99 0.0 4.8 0.00 0.00 0.00 48 1013.0
20260903041544 29 0 1.6 6.4 0.00 0.00 0.00 47 1013.1
20260903040046 29 219 0.0 6.4 0.00 0.00 0.00 46 1012.9
20260903034542 30 249 3.2 9.7 0.00 0.00 0.00 45 1013.0
20260903033041 30 234 0.0 8.0 0.00 0.00 0.00 44 1013.1
20260903031544 31 0 1.6 6.4 0.00 0.00 0.00 43 1012.8
20260903030042 31 0 1.6 12.9 0.00 0.00 0.00 40 1012.8
20260903024540 31 227 3.2 14.5 0.00 0.00 0.00 39 1012.5
20260903023043 32 213 1.6 12.9 0.00 0.00 0.00 37 1012.3
20260903021550 32 0 0.0 9.7 0.00 0.00 0.00 39 1012.0
20260903020043 32 217 3.2 9.7 0.00 0.00 0.00 40 1011.9
20260903014547 32 211 0.0 4.8 0.00 0.00 0.00 39 1011.6
20260903013040 32 191 0.0 4.8 0.00 0.00 0.00 40 1011.5
20260903011540 32 219 0.0 3.2 0.00 0.00 0.00 39 1011.3
20260903010044 33 213 0.0 3.2 0.00 0.00 0.00 38 1011.2
20260903004540 33 211 1.6 4.8 0.00 0.00 0.00 38 1011.2
20260903003047 33 221 1.6 12.9 0.00 0.00 0.00 38 1011.2
20260903001545 34 242 3.2 11.3 0.00 0.00 0.00 34 1011.1
20260903000041 35 170 0.0 4.8 0.00 0.00 0.00 29 1010.9
20260902234546 35 174 0.0 6.4 0.00 0.00 0.00 28 1010.8
20260902233045 35 169 0.0 6.4 0.00 0.00 0.00 27 1010.8
20260902231543 36 131 1.6 4.8 0.00 0.00 0.00 27 1010.7
20260902230042 35 276 1.6 4.8 0.00 0.00 0.00 28 1010.7
20260902224543 36 157 0.0 6.4 0.00 0.00 0.00 28 1010.8
20260902223043 36 146 1.6 4.8 0.00 0.00 0.00 27 1010.8
20260902221543 36 155 0.0 3.2 0.00 0.00 0.00 28 1011.1
20260902220047 36 148 1.6 6.4 0.00 0.00 0.00 29 1011.3
20260902214542 36 158 1.6 8.0 0.00 0.00 0.00 30 1011.4
20260902213045 36 153 1.6 6.4 0.00 0.00 0.00 28 1011.5
20260902211556 36 160 0.0 4.8 0.00 0.00 0.00 28 1011.7
20260902210109 36 168 1.6 6.4 0.00 0.00 0.00 27 1012.1
20260902204544 36 175 1.6 4.8 0.00 0.00 0.00 27 1012.2
20260902203046 36 203 1.6 8.0 0.00 0.00 0.00 29 1012.3
20260902201546 36 143 1.6 3.2 0.00 0.00 0.00 29 1012.6
20260902200041 36 147 1.6 6.4 0.00 0.00 0.00 28 1012.9
20260902194545 36 166 1.6 9.7 0.00 0.00 0.00 27 1013.0
20260902193042 36 172 1.6 4.8 0.00 0.00 0.00 29 1013.2
20260902191546 36 169 0.0 6.4 0.00 0.00 0.00 29 1013.5
20260902190043 36 168 1.6 6.4 0.00 0.00 0.00 31 1013.7
20260902184542 36 163 1.6 6.4 0.00 0.00 0.00 31 1013.8
20260902183046 35 168 1.6 6.4 0.00 0.00 0.00 33 1014.2
20260902181541 35 154 0.0 6.4 0.00 0.00 0.00 33 1014.6
20260902180105 35 124 0.0 6.4 0.00 0.00 0.00 34 1014.9
20260902174544 34 128 0.0 8.0 0.00 0.00 0.00 34 1015.2
20260902173040 33 181 1.6 8.0 0.00 0.00 0.00 36 1015.3
20260902171549 32 172 1.6 9.7 0.00 0.00 0.00 39 1015.5
20260902170042 32 159 0.0 6.4 0.00 0.00 0.00 39 1015.7
20260902164542 31 149 1.6 6.4 0.00 0.00 0.00 41 1015.8
20260902163043 31 165 1.6 4.8 0.00 0.00 0.00 42 1015.9
20260902161543 31 204 3.2 6.4 0.00 0.00 0.00 43 1016.1
20260902160041 31 174 1.6 4.8 0.00 0.00 0.00 44 1016.1
20260902154540 30 169 1.6 8.0 0.00 0.00 0.00 47 1016.1